Weather in Korsor

Denmark     55°19′36″N   11°08′42″E
temp.,
°C
wind,
m/s
gust,
m/s
humid.,
%
clouds,
%
prec.,
mm/h
press.,
hPa
HPBL,
m
15 august, mon
mon1523:00+20e71371100 0.0 1010307
02:00+18e598887 0.0 1009203
05:00+18ene589623 0.0 1007192
08:00+21ese588312 0.0 1006220
11:00+24se58655 0.0 1007388
14:00+26se68570 0.0 1006621
17:00+26ese78554 0.0 1005560
20:00+24ese696825 0.0 1004222
16 august, tue
tue1623:00+21ene478669 2.1 1005161
02:00+20e469413 3.7 1004137
05:00+20s349093 0.1 100485
08:00+20sw468789 0.1 1005216
11:00+21sw67840 0.0 1007368
14:00+22ssw7975100 0.0 1008352
17:00+24s46605 0.0 1008278
20:00+22ssw5874100 0.0 1010116
17 august, wed
wed1723:00+21s4577100 0.3 101160
02:00+21ssw227954 0.4 101112
05:00+20sse2279100 0.0 101220
08:00+21se2373100 0.0 101261
11:00+24se4563100 0.0 1012270
14:00+25s3460100 0.0 1013447
17:00+25sse2357100 0.0 1013390
20:00+24ese2361100 0.0 101353
18 august, thu
thu1823:00+21e3469100 0.0 101457
02:00+20e2480100 1.1 101371
05:00+19ne2485100 0.9 101399
08:00+20ne488397 5.4 1013246
11:00+23ene2475100 3.4 1013291
14:00+24sw1471100 4.2 1012410
17:00+21nw768046 0.6 1012201
20:00+20nw4591100 2.6 1012102
19 august, fri
fri1923:00+20nne4691100 0.6 1011105
02:00+19nne3492100 0.6 1012133
05:00+19n6896100 0.0 1011259
08:00+19n689187 0.0 1012359
11:00+21n568393 0.5 1012415
14:00+22nnw8678100 1.6 1011500
17:00+21nnw768270 1.3 1010437
20:00+19nnw589324 5.8 1010207